TimePDT,TemperatureF,Dew PointF,Humidity,Sea Level PressureIn,VisibilityMPH,Wind Direction,Wind SpeedMPH,Gust SpeedMPH,PrecipitationIn,Events,Conditions,WindDirDegrees,DateUTC
12:55 AM,35.1,19.9,54,30.11,10.0,Calm,Calm,-,N/A,,Clear,0,2012-10-04 07:55:00
1:55 AM,36.0,19.9,52,30.10,10.0,Calm,Calm,-,N/A,,Clear,0,2012-10-04 08:55:00
2:55 AM,37.0,24.1,59,30.09,10.0,Calm,Calm,-,N/A,,Clear,0,2012-10-04 09:55:00
3:55 AM,33.1,21.0,61,30.10,10.0,NNE,3.5,-,N/A,,Clear,30,2012-10-04 10:55:00
4:55 AM,30.9,19.9,64,30.10,10.0,Calm,Calm,-,N/A,,Clear,0,2012-10-04 11:55:00
5:55 AM,30.0,18.0,61,30.12,10.0,Calm,Calm,-,N/A,,Clear,0,2012-10-04 12:55:00
6:55 AM,30.9,21.0,67,30.14,10.0,Calm,Calm,-,N/A,,Clear,0,2012-10-04 13:55:00
7:55 AM,34.0,21.0,59,30.16,10.0,Calm,Calm,-,N/A,,Clear,0,2012-10-04 14:55:00
8:55 AM,44.1,19.9,38,30.16,10.0,Calm,Calm,-,N/A,,Clear,0,2012-10-04 15:55:00
9:55 AM,52.0,19.0,27,30.14,10.0,Calm,Calm,-,N/A,,Clear,0,2012-10-04 16:55:00
10:55 AM,57.9,19.9,23,30.12,10.0,Calm,Calm,-,N/A,,Clear,0,2012-10-04 17:55:00
11:55 AM,64.0,23.0,21,30.12,10.0,Calm,Calm,-,N/A,,Clear,0,2012-10-04 18:55:00
12:55 PM,73.9,30.0,20,30.08,10.0,West,11.5,16.1,N/A,,Clear,260,2012-10-04 19:55:00
1:55 PM,78.1,24.1,14,30.05,10.0,WNW,12.7,20.7,N/A,,Clear,300,2012-10-04 20:55:00
2:55 PM,79.0,21.0,12,30.03,10.0,NW,20.7,26.5,N/A,,Clear,310,2012-10-04 21:55:00
3:55 PM,78.1,23.0,13,30.03,10.0,NW,20.7,26.5,N/A,,Clear,320,2012-10-04 22:55:00
4:55 PM,77.0,21.9,13,30.03,10.0,NW,15.0,19.6,N/A,,Clear,310,2012-10-04 23:55:00
5:55 PM,73.0,23.0,15,30.04,10.0,NNW,13.8,21.9,N/A,,Clear,330,2012-10-05 00:55:00
6:55 PM,69.1,21.9,17,30.06,10.0,NW,10.4,-,N/A,,Clear,320,2012-10-05 01:55:00
7:55 PM,64.0,21.0,19,30.08,10.0,WNW,8.1,-,N/A,,Clear,290,2012-10-05 02:55:00
8:55 PM,59.0,19.0,21,30.08,10.0,WNW,4.6,-,N/A,,Clear,290,2012-10-05 03:55:00
9:55 PM,53.1,21.9,30,30.10,10.0,Calm,Calm,-,N/A,,Clear,0,2012-10-05 04:55:00
10:55 PM,48.0,21.0,34,30.11,10.0,NE,3.5,-,N/A,,Clear,40,2012-10-05 05:55:00
11:55 PM,48.9,21.0,33,30.11,10.0,Calm,Calm,-,N/A,,Clear,0,2012-10-05 06:55:00